Fredericksburg, VA

5:00 PM EST on December 09, 2019 (GMT -0500)
Shannon

Weather History for KEZF - October, 2019

Change the Weather History Date:

Tuesday, October 8, 2019

  Actual Average (KNYG) Record (KNYG)
Temperature  
Mean Temperature 64 °F -  
Max Temperature 66 °F 68 °F 84 °F (2018)
Min Temperature 61 °F 49 °F 35 °F (2001)
Degree Days  
Heating Degree Days 2    
Growing Degree Days 14 (Base 50)    
Moisture  
Dew Point 55 °F    
Average Humidity 75    
Maximum Humidity 87    
Minimum Humidity 64    
Precipitation  
Precipitation 0.00 in - - ()
Sea Level Pressure  
Sea Level Pressure 30.16 in    
Wind  
Wind Speed 7 mph ()    
Max Wind Speed 14 mph    
Max Gust Speed 21 mph    
Visibility 9.9 miles    
Events      
Averages and records for this station are not official NWS values.
T = Trace of Precipitation, MM = Missing Value Source: Averaged Metar Reports

Daily Weather History Graph

Daily Weather History Graph

Search for Another Location

Airport or City:

Astronomy

Oct. 08, 2019 Rise Set
Actual Time 7:11 AM EDT 6:42 PM EDT
Civil Twilight 6:45 AM EDT 7:08 PM EDT
Nautical Twilight 6:14 AM EDT 7:39 PM EDT
Astronomical Twilight 5:44 AM EDT 8:09 PM EDT
Moon 4:35 PM EDT (10/8) 2:04 AM EDT (10/8)
Length of Visible Light 12h 23m
Length of Day
11h 30m
Waxing Gibbous, 77% of the Moon is Illuminated
Oct 8
Waxing Gibbous
Oct 13
Full
Oct 21
Last Quarter
Oct 27
New
Nov 4
First Quarter

Hourly Weather History & Observations

Time (EDT) Temp. Dew Point Humidity Pressure Visibility Wind Dir Wind Speed Gust Speed Precip Events Conditions
12:15 AM 65.3 °F 58.5 °F 78% 30.13 in 10.0 mi North 9.2 mph - N/A   Overcast
12:35 AM 64.8 °F 58.5 °F 80% 30.14 in 10.0 mi NNW 5.8 mph - N/A   Overcast
12:55 AM 64.4 °F 58.5 °F 81% 30.14 in 10.0 mi North 8.1 mph - N/A   Overcast
1:15 AM 64.0 °F 58.1 °F 81% 30.14 in 10.0 mi North 13.8 mph 18.4 mph N/A   Overcast
1:35 AM 64.0 °F 58.1 °F 81% 30.14 in 10.0 mi North 10.4 mph - N/A   Overcast
1:55 AM 63.9 °F 57.7 °F 80% 30.15 in 10.0 mi North 5.8 mph 18.4 mph N/A   Overcast
2:15 AM 63.5 °F 57.7 °F 81% 30.14 in 10.0 mi North 8.1 mph - N/A   Light Drizzle
2:35 AM 63.3 °F 57.4 °F 81% 30.14 in 10.0 mi North 8.1 mph - N/A   Overcast
2:55 AM 63.0 °F 57.2 °F 81% 30.13 in 10.0 mi North 8.1 mph 17.3 mph N/A   Overcast
3:15 AM 62.2 °F 57.6 °F 85% 30.13 in 10.0 mi North 12.7 mph 16.1 mph N/A   Overcast
3:35 AM 62.1 °F 57.6 °F 85% 30.13 in 10.0 mi North 6.9 mph - N/A   Overcast
3:55 AM 61.9 °F 57.6 °F 86% 30.14 in 10.0 mi North 5.8 mph - N/A   Overcast
4:15 AM 61.9 °F 57.6 °F 86% 30.14 in 10.0 mi North 6.9 mph - N/A   Overcast
4:35 AM 61.7 °F 57.2 °F 85% 30.14 in 10.0 mi North 10.4 mph 17.3 mph N/A   Overcast
4:55 AM 61.7 °F 57.4 °F 86% 30.15 in 10.0 mi North 9.2 mph - N/A   Overcast
5:15 AM 61.3 °F 57.4 °F 87% 30.16 in 10.0 mi NNW 8.1 mph - N/A   Overcast
5:35 AM 61.0 °F 57.2 °F 87% 30.16 in 10.0 mi North 6.9 mph - N/A   Overcast
5:55 AM 61.7 °F 56.3 °F 82% 30.17 in 10.0 mi North 6.9 mph - N/A   Overcast
6:15 AM 61.7 °F 56.3 °F 82% 30.17 in 10.0 mi North 8.1 mph - N/A   Overcast
6:35 AM 61.7 °F 56.5 °F 83% 30.17 in 10.0 mi North 5.8 mph - N/A   Overcast
6:55 AM 61.7 °F 56.7 °F 84% 30.17 in 10.0 mi North 8.1 mph - N/A   Overcast
7:15 AM 61.7 °F 56.7 °F 84% 30.17 in 10.0 mi North 8.1 mph - N/A   Overcast
7:35 AM 61.7 °F 56.5 °F 83% 30.17 in 10.0 mi North 9.2 mph 17.3 mph N/A   Overcast
7:55 AM 61.3 °F 56.7 °F 85% 30.18 in 10.0 mi North 10.4 mph 16.1 mph N/A   Overcast
8:15 AM 61.3 °F 56.3 °F 83% 30.18 in 10.0 mi North 6.9 mph - N/A   Overcast
8:35 AM 61.3 °F 56.1 °F 83% 30.18 in 10.0 mi North 5.8 mph - N/A   Overcast
8:55 AM 61.3 °F 55.6 °F 81% 30.18 in 10.0 mi North 6.9 mph - N/A   Overcast
9:15 AM 61.7 °F 54.7 °F 78% 30.19 in 10.0 mi North 10.4 mph - N/A   Overcast
9:35 AM 61.9 °F 54.7 °F 77% 30.18 in 10.0 mi North 5.8 mph - N/A   Overcast
9:55 AM 62.2 °F 54.9 °F 77% 30.19 in 10.0 mi North 8.1 mph - N/A   Overcast
10:15 AM 62.6 °F 55.6 °F 78% 30.19 in 10.0 mi North 6.9 mph - N/A   Overcast
10:35 AM 63.0 °F 55.6 °F 77% 30.19 in 10.0 mi North 5.8 mph - N/A   Overcast
10:55 AM 63.1 °F 55.4 °F 76% 30.19 in 10.0 mi NNE 6.9 mph - N/A   Overcast
11:15 AM 63.5 °F 55.0 °F 74% 30.20 in 10.0 mi NNE 6.9 mph - N/A   Overcast
11:35 AM 63.7 °F 55.4 °F 74% 30.19 in 10.0 mi NNE 8.1 mph 20.7 mph N/A   Overcast
11:55 AM 64.4 °F 55.6 °F 73% 30.18 in 10.0 mi NNE 12.7 mph 17.3 mph N/A   Overcast
12:15 PM 64.0 °F 55.6 °F 74% 30.18 in 10.0 mi North 5.8 mph 19.6 mph N/A   Overcast
12:35 PM 64.0 °F 55.4 °F 73% 30.18 in 10.0 mi NNE 10.4 mph 20.7 mph N/A   Overcast
12:55 PM 64.4 °F 55.8 °F 73% 30.17 in 10.0 mi North 10.4 mph 17.3 mph N/A   Overcast
1:15 PM 64.4 °F 55.9 °F 74% 30.17 in 10.0 mi North 9.2 mph - N/A   Overcast
1:35 PM 64.4 °F 55.8 °F 73% 30.16 in 10.0 mi North 8.1 mph 18.4 mph N/A   Overcast
1:55 PM 64.8 °F 55.4 °F 72% 30.16 in 10.0 mi North 6.9 mph - N/A   Overcast
2:15 PM 64.9 °F 55.8 °F 72% 30.15 in 10.0 mi North 8.1 mph - N/A   Overcast
2:35 PM 64.9 °F 55.0 °F 70% 30.15 in 10.0 mi NNE 6.9 mph - N/A   Overcast
2:55 PM 65.3 °F 55.4 °F 70% 30.14 in 10.0 mi NNE 10.4 mph 17.3 mph N/A   Overcast
3:15 PM 65.5 °F 55.4 °F 70% 30.14 in 7.0 mi NNE 6.9 mph 16.1 mph N/A   Overcast
3:35 PM 66.2 °F 55.2 °F 68% 30.14 in 10.0 mi NNE 10.4 mph 17.3 mph N/A   Overcast
3:55 PM 66.6 °F 55.0 °F 66% 30.14 in 10.0 mi NE 9.2 mph 16.1 mph N/A   Overcast
4:15 PM 66.2 °F 54.5 °F 66% 30.14 in 7.0 mi NNE 11.5 mph 19.6 mph N/A   Overcast
4:35 PM 65.7 °F 54.5 °F 67% 30.15 in 10.0 mi North 10.4 mph - N/A   Overcast
4:55 PM 65.5 °F 54.3 °F 67% 30.15 in 10.0 mi North 5.8 mph - N/A   Overcast
5:15 PM 65.3 °F 54.5 °F 68% 30.15 in 10.0 mi NNE 6.9 mph - N/A   Overcast
5:35 PM 65.3 °F 54.3 °F 68% 30.15 in 10.0 mi North 9.2 mph - N/A   Overcast
5:55 PM 64.9 °F 53.6 °F 67% 30.16 in 10.0 mi NNE 8.1 mph - N/A   Overcast
6:15 PM 64.6 °F 52.7 °F 65% 30.16 in 10.0 mi NNE 9.2 mph - N/A   Overcast
6:35 PM 64.4 °F 52.0 °F 64% 30.16 in 10.0 mi NNE 6.9 mph - N/A   Overcast
6:55 PM 64.2 °F 51.6 °F 64% 30.16 in 10.0 mi NNE 5.8 mph - N/A   Overcast
7:15 PM 63.9 °F 52.0 °F 65% 30.16 in 10.0 mi North 4.6 mph - N/A   Overcast
7:35 PM 63.7 °F 52.0 °F 66% 30.17 in 10.0 mi NNE 3.5 mph - N/A   Overcast
7:55 PM 63.7 °F 52.7 °F 67% 30.17 in 10.0 mi North 3.5 mph - N/A   Overcast
8:15 PM 63.7 °F 52.3 °F 67% 30.17 in 10.0 mi North 4.6 mph - N/A   Overcast
8:35 PM 63.5 °F 52.3 °F 67% 30.17 in 10.0 mi Calm Calm - N/A   Overcast
8:55 PM 63.7 °F 52.9 °F 68% 30.17 in 10.0 mi North 3.5 mph - N/A   Overcast
9:15 PM 63.5 °F 53.1 °F 69% 30.17 in 10.0 mi North 3.5 mph - N/A   Overcast
9:35 PM 63.5 °F 53.2 °F 69% 30.17 in 10.0 mi North 6.9 mph - N/A   Overcast
9:55 PM 63.5 °F 53.1 °F 69% 30.18 in 10.0 mi North 4.6 mph - N/A   Overcast
10:15 PM 63.5 °F 52.5 °F 67% 30.18 in 10.0 mi North 4.6 mph - N/A   Overcast
10:35 PM 63.5 °F 52.0 °F 66% 30.18 in 10.0 mi North 4.6 mph - N/A   Overcast
10:55 PM 63.3 °F 51.6 °F 66% 30.18 in 10.0 mi NNW 4.6 mph - N/A   Overcast
11:15 PM 63.0 °F 51.4 °F 66% 30.18 in 10.0 mi North 4.6 mph - N/A   Overcast
11:35 PM 62.8 °F 51.3 °F 66% 30.18 in 10.0 mi North 3.5 mph - N/A   Mostly Cloudy
11:55 PM 62.6 °F 51.1 °F 66% 30.18 in 10.0 mi NNW 3.5 mph - N/A   Overcast